• In Netherlands
  • List of Countries
  • For 7 days
  • Water Temperature
  • Satellite Maps
  • Weather Map
  • Weather Widgets
  • user-avatar
    Login

    Hourly Weather Liege

    Today, 28 May, Sunday

    Time Temperature Precipitation Wind Pressure Humidity
    00:00 +19°C° 0.1 mm 2 mps 754 mmHg 93%
    01:00 +19°C° 0.2 mm 1 mps 754 mmHg 94%
    02:00 +18°C° 0.2 mm 1 mps 754 mmHg 95%
    03:00 +16°C° 0.2 mm 1 mps 754 mmHg 95%
    04:00 +18°C° 0.1 mm 1 mps 754 mmHg 93%
    05:00 +19°C° 0.1 mm 1 mps 755 mmHg 91%
    06:00 +21°C° 0.1 mm 1 mps 755 mmHg 88%
    07:00 +22°C° 0.3 mm 1 mps 755 mmHg 85%
    08:00 +24°C° 0.3 mm 1 mps 755 mmHg 82%
    09:00 +25°C° 0.3 mm 1 mps 755 mmHg 79%
    10:00 +26°C° 0.4 mm 1 mps 754 mmHg 76%
    11:00 +27°C° 0.4 mm 1 mps 754 mmHg 72%
    12:00 +28°C° 0.4 mm 1 mps 754 mmHg 69%
    13:00 +28°C° 0.8 mm 1 mps 754 mmHg 70%
    14:00 +28°C° 0.8 mm 2 mps 754 mmHg 71%
    15:00 +28°C° 0.8 mm 2 mps 754 mmHg 72%
    16:00 +28°C° 0.6 mm 1 mps 754 mmHg 75%
    17:00 +27°C° 0.6 mm 1 mps 753 mmHg 79%
    18:00 +26°C° 0.6 mm 1 mps 753 mmHg 83%
    19:00 +25°C° 0 mm 1 mps 753 mmHg 84%
    20:00 +24°C° 0 mm 2 mps 753 mmHg 85%
    21:00 +21°C° 0 mm 2 mps 753 mmHg 86%
    22:00 +21°C° 0 mm 2 mps 753 mmHg 87%
    23:00 +21°C° 0 mm 2 mps 753 mmHg 88%

    Tomorrow, 29 May, Monday

    Time Temperature Precipitation Wind Pressure Humidity
    00:00 +20°C° 0 mm 2 mps 753 mmHg 89%
    01:00 +20°C° 0 mm 2 mps 752 mmHg 89%
    02:00 +20°C° 0 mm 2 mps 752 mmHg 90%
    03:00 +19°C° 0 mm 3 mps 752 mmHg 90%
    04:00 +20°C° 0 mm 3 mps 752 mmHg 89%
    05:00 +21°C° 0 mm 3 mps 751 mmHg 88%
    06:00 +22°C° 0 mm 3 mps 751 mmHg 87%
    07:00 +24°C° 0 mm 3 mps 751 mmHg 82%
    08:00 +25°C° 0 mm 4 mps 751 mmHg 77%
    09:00 +27°C° 0 mm 4 mps 751 mmHg 72%
    10:00 +27°C° 0 mm 4 mps 751 mmHg 70%
    11:00 +28°C° 0 mm 4 mps 751 mmHg 69%
    12:00 +29°C° 0 mm 5 mps 750 mmHg 67%
    13:00 +29°C° 0 mm 4 mps 750 mmHg 69%
    14:00 +29°C° 0 mm 4 mps 750 mmHg 70%
    15:00 +29°C° 0 mm 4 mps 750 mmHg 72%
    16:00 +28°C° 0.3 mm 4 mps 750 mmHg 77%
    17:00 +27°C° 0.3 mm 3 mps 750 mmHg 82%
    18:00 +26°C° 0.3 mm 3 mps 750 mmHg 87%
    19:00 +24°C° 0.3 mm 3 mps 750 mmHg 89%
    20:00 +23°C° 0.3 mm 2 mps 750 mmHg 92%
    21:00 +20°C° 0.3 mm 2 mps 751 mmHg 94%
    22:00 +20°C° 0.6 mm 2 mps 751 mmHg 95%
    23:00 +19°C° 0.6 mm 2 mps 751 mmHg 96%

    Day after tomorrow, 30 May, Tuesday

    Time Temperature Precipitation Wind Pressure Humidity
    00:00 +19°C° 0.6 mm 2 mps 751 mmHg 96%
    01:00 +18°C° 0.2 mm 2 mps 751 mmHg 97%
    02:00 +18°C° 0.2 mm 2 mps 751 mmHg 97%
    03:00 +17°C° 0.2 mm 2 mps 751 mmHg 97%
    04:00 +18°C° 0 mm 2 mps 751 mmHg 96%
    05:00 +18°C° 0 mm 2 mps 751 mmHg 96%
    06:00 +18°C° 0 mm 3 mps 751 mmHg 95%
    07:00 +19°C° 0 mm 3 mps 751 mmHg 93%
    08:00 +19°C° 0 mm 3 mps 752 mmHg 91%
    09:00 +19°C° 0 mm 3 mps 752 mmHg 90%
    10:00 +20°C° 0 mm 4 mps 752 mmHg 84%
    11:00 +21°C° 0 mm 4 mps 752 mmHg 78%
    12:00 +23°C° 0 mm 4 mps 752 mmHg 73%
    13:00 +23°C° 0.1 mm 4 mps 752 mmHg 73%
    14:00 +23°C° 0.1 mm 4 mps 752 mmHg 73%
    15:00 +23°C° 0.1 mm 5 mps 752 mmHg 73%
    16:00 +22°C° 0.2 mm 4 mps 752 mmHg 77%
    17:00 +21°C° 0.2 mm 4 mps 753 mmHg 81%
    18:00 +21°C° 0.2 mm 3 mps 753 mmHg 85%
    19:00 +19°C° 0 mm 3 mps 753 mmHg 88%
    20:00 +18°C° 0 mm 2 mps 753 mmHg 91%
    21:00 +16°C° 0 mm 2 mps 754 mmHg 94%
    22:00 +16°C° 0 mm 2 mps 754 mmHg 95%
    23:00 +15°C° 0 mm 2 mps 754 mmHg 95%

    31 May, Wednesday

    Time Temperature Precipitation Wind Pressure Humidity
    00:00 +15°C° 0 mm 2 mps 754 mmHg 96%
    01:00 +14°C° 0 mm 2 mps 754 mmHg 97%
    02:00 +14°C° 0 mm 2 mps 754 mmHg 97%
    03:00 +12°C° 0 mm 3 mps 754 mmHg 97%
    04:00 +13°C° 0 mm 3 mps 755 mmHg 96%
    05:00 +13°C° 0 mm 3 mps 755 mmHg 95%
    06:00 +14°C° 0 mm 3 mps 755 mmHg 94%
    07:00 +16°C° 0 mm 3 mps 755 mmHg 88%
    08:00 +17°C° 0 mm 3 mps 756 mmHg 83%
    09:00 +18°C° 0 mm 3 mps 756 mmHg 78%
    10:00 +19°C° 0 mm 3 mps 756 mmHg 74%
    11:00 +19°C° 0 mm 4 mps 756 mmHg 69%
    12:00 +20°C° 0 mm 4 mps 756 mmHg 65%
    13:00 +20°C° 0 mm 4 mps 756 mmHg 64%
    14:00 +20°C° 0 mm 4 mps 756 mmHg 63%
    15:00 +20°C° 0 mm 4 mps 756 mmHg 62%
    16:00 +19°C° 0 mm 4 mps 756 mmHg 67%
    17:00 +18°C° 0 mm 3 mps 756 mmHg 71%
    18:00 +17°C° 0 mm 3 mps 756 mmHg 76%
    19:00 +14°C° 0 mm 3 mps 756 mmHg 80%
    20:00 +13°C° 0 mm 2 mps 757 mmHg 84%
    21:00 +9°C° 0 mm 2 mps 757 mmHg 88%
    22:00 +8°C° 0 mm 2 mps 757 mmHg 89%
    23:00 +8°C° 0 mm 1 mps 757 mmHg 90%

    1 June, Thursday

    Time Temperature Precipitation Wind Pressure Humidity
    00:00 +7°C° 0 mm 1 mps 757 mmHg 91%
    01:00 +7°C° 0 mm 1 mps 757 mmHg 91%
    02:00 +6°C° 0 mm 1 mps 757 mmHg 91%
    03:00 +6°C° 0 mm 1 mps 757 mmHg 92%
    04:00 +8°C° 0 mm 1 mps 757 mmHg 87%
    05:00 +10°C° 0 mm 1 mps 757 mmHg 83%
    06:00 +13°C° 0 mm 1 mps 757 mmHg 79%
    07:00 +14°C° 0 mm 1 mps 757 mmHg 74%
    08:00 +15°C° 0 mm 2 mps 757 mmHg 69%
    09:00 +17°C° 0 mm 2 mps 757 mmHg 64%
    10:00 +18°C° 0 mm 2 mps 757 mmHg 63%
    11:00 +19°C° 0 mm 2 mps 757 mmHg 61%
    12:00 +20°C° 0 mm 2 mps 757 mmHg 59%
    13:00 +20°C° 0 mm 2 mps 757 mmHg 60%
    14:00 +20°C° 0 mm 3 mps 756 mmHg 61%
    15:00 +20°C° 0 mm 3 mps 756 mmHg 62%
    16:00 +20°C° 0 mm 3 mps 756 mmHg 68%
    17:00 +19°C° 0 mm 3 mps 756 mmHg 73%
    18:00 +19°C° 0 mm 3 mps 756 mmHg 79%
    19:00 +17°C° 0 mm 3 mps 756 mmHg 83%
    20:00 +14°C° 0 mm 3 mps 756 mmHg 87%
    21:00 +12°C° 0 mm 3 mps 756 mmHg 91%
    22:00 +12°C° 0 mm 3 mps 756 mmHg 91%
    23:00 +12°C° 0 mm 2 mps 756 mmHg 92%

    2 June, Friday

    Time Temperature Precipitation Wind Pressure Humidity
    00:00 +12°C° 0 mm 2 mps 756 mmHg 92%
    01:00 +10°C° 0 mm 2 mps 756 mmHg 92%
    02:00 +10°C° 0 mm 2 mps 756 mmHg 91%
    03:00 +9°C° 0 mm 2 mps 756 mmHg 91%
    04:00 +12°C° 0 mm 2 mps 755 mmHg 88%
    05:00 +14°C° 0 mm 2 mps 755 mmHg 85%
    06:00 +15°C° 0 mm 2 mps 755 mmHg 82%
    07:00 +17°C° 0 mm 2 mps 755 mmHg 77%
    08:00 +19°C° 0 mm 2 mps 755 mmHg 73%
    09:00 +21°C° 0 mm 1 mps 755 mmHg 68%
    10:00 +22°C° 0 mm 1 mps 755 mmHg 65%
    11:00 +23°C° 0 mm 1 mps 754 mmHg 62%
    12:00 +24°C° 0 mm 1 mps 754 mmHg 59%
    13:00 +24°C° 0 mm 1 mps 754 mmHg 58%
    14:00 +23°C° 0 mm 0 mps 754 mmHg 57%
    15:00 +23°C° 0 mm 0 mps 753 mmHg 56%
    16:00 +23°C° 0 mm 0 mps 753 mmHg 62%
    17:00 +22°C° 0 mm 0 mps 753 mmHg 68%
    18:00 +22°C° 0 mm 0 mps 753 mmHg 74%
    19:00 +21°C° 0 mm 1 mps 753 mmHg 77%
    20:00 +19°C° 0 mm 1 mps 753 mmHg 80%
    21:00 +15°C° 0 mm 1 mps 753 mmHg 83%
    22:00 +14°C° 0 mm 1 mps 753 mmHg 84%
    23:00 +14°C° 0 mm 1 mps 753 mmHg 85%
    Show more